View Data : List Evapotranspiration (ETo ) Reports


 
Search Evapotranspiration Reports
Station Fields:
Location:
Date Range:
Start Date:   End Date:
Searched: Report date on 10/20/2017.
Showing 30 Records.    
DateTimeStation NumberStation NameGaugeReadingRefill LevelEvap AmtView
10/20/2017  12:00 AM  MN-AA-5  East Bethel 3.1 NE 2.25  0.06   
10/20/2017  4:53 AM  MO-CP-7  Boonville 0.5 ESE 1.36  0.12   
10/20/2017  5:00 AM  NY-CQ-22  Fredonia 0.8 WNW 7.33  0.04   
10/20/2017  5:30 AM  IN-TN-1  Atlanta 4.4 W 9.70  0.05   
10/20/2017  5:30 AM  TX-KN-4  Boerne 5.1 NNW 2.26  0.08   
10/20/2017  6:00 AM  MD-MG-54  Germantown 4.6 NNE 6.59  0.07   
10/20/2017  6:00 AM  TX-ER-4  Stephenville 2.6 NNW 0.10  0.10   
10/20/2017  6:00 AM  WI-LN-2  Merrill 7.0 W 9.75  0.10   
10/20/2017  6:30 AM  IL-WN-2  Roscoe 1.6 ESE 6.60  0.10   
10/20/2017  6:30 AM  OH-DR-1  Bradford 2.3 NW 10.19  0.03   
10/20/2017  7:00 AM  FL-MR-66  The Villages 3.7 NNW 3.23  0.08   
10/20/2017  7:00 AM  GA-FY-28  Fayetteville 2.1 NNE 0.59  0.11   
10/20/2017  7:00 AM  IL-KN-67  St. Charles 6.0 NW 0.65  0.05   
10/20/2017  7:00 AM  IN-HR-5  Milltown 5.7 SSE 4.58  0.08   
10/20/2017  7:00 AM  IN-MR-13  Speedway 6.2 SSW 2.95  0.13   
10/20/2017  7:00 AM  IN-OW-9  Spencer 7.0 S 4.08  0.08   
10/20/2017  7:00 AM  IA-TY-2  New Market 4.7 N 0.83  0.10   
10/20/2017  7:00 AM  KS-SG-111  Wichita 5.9 WSW 2.55  0.12   
10/20/2017  7:00 AM  KY-FR-1  Frankfort 3.3 NE 8.88  0.08   
10/20/2017  7:00 AM  KY-ME-8  Harrodsburg 10.8 NW 5.00  0.06   
10/20/2017  7:00 AM  MD-HR-23  Norrisville 0.6 WSW 3.92  0.07   
10/20/2017  7:00 AM  MD-PG-49  Fort Washington 1.6 WSW 11.06  0.03   
10/20/2017  7:00 AM  NH-MR-15  Dunbarton 0.3 N 7.59  0.18   
10/20/2017  7:00 AM  OH-CK-1  Springfield 1.1 NNW 2.66  0.06   
10/20/2017  7:00 AM  OH-PB-1  Eaton 1.0 N 2.73  0.04   
10/20/2017  7:00 AM  SC-CR-49  NWS Charleston SC 10.70  0.14   
10/20/2017  7:15 AM  NY-WC-6  South Salem 2.1 NW 10.63  0.06   
10/20/2017  7:15 AM  VA-HV-8  Montpelier 4.8 E 8.49  0.04   
10/20/2017  7:30 AM  CAN-NB-1  Fredericton 4.0 SSE 1.61  0.05   
10/20/2017  8:00 AM  IN-AL-42  Fort Wayne 7.1 WSW 8.27  0.09